Change the Weather History Date:

Thursday, March 14, 2013

  Actual Average (KHOU) Record (KHOU)
Temperature  
Mean Temperature 56 °F 62 °F  
Max Temperature 73 °F 73 °F 88 °F (2008)
Min Temperature 40 °F 52 °F 29 °F (1993)
Degree Days  
Heating Degree Days 8 5  
Month to date heating degree days 83  
Since 1 July heating degree days 1271  
Cooling Degree Days 0 2  
Month to date cooling degree days 26  
Year to date cooling degree days 64  
Growing Degree Days 6 (Base 50)    
Moisture  
Dew Point 44 °F    
Average Humidity 67    
Maximum Humidity 99    
Minimum Humidity 28    
Precipitation  
Precipitation 0.00 in 0.11 in 1.82 in (2001)
Month to date precipitation 1.58  
Year to date precipitation 8.16  
Sea Level Pressure  
Sea Level Pressure 30.36 in    
Wind  
Wind Speed - (North)    
Max Wind Speed -    
Max Gust Speed -    
Visibility 9 miles    
Events Fog    
T = Trace of Precipitation, MM = Missing Value Source: NWS Daily Summary

Daily Weather History Graph

Daily Weather History Graph

Search for Another Location

Airport or City:

Trip Planner

Search our weather history database for the weather conditions in past years. The results will help you decide how hot, cold, wet, or windy it might be!

Date:

Astronomy

Mar. 14, 2013 Rise Set
Actual Time 7:32 AM CDT 7:29 PM CDT
Civil Twilight 7:08 AM CDT 7:53 PM CDT
Nautical Twilight 6:41 AM CDT 8:21 PM CDT
Astronomical Twilight 6:13 AM CDT 8:48 PM CDT
Moon 9:03 AM CDT (3/14) 10:28 PM CDT (3/14)
Length of Visible Light 12h 44m
Length of Day
11h 57m
Waxing Crescent, 9% of the Moon is Illuminated
Mar 14
Waxing Crescent
Mar 19
First Quarter
Mar 27
Full
Apr 2
Last Quarter
Apr 10
New

Hourly Weather History & Observations

Time (CDT) Temp. Dew Point Humidity Pressure Visibility Wind Dir Wind Speed Gust Speed Precip Events Conditions
12:15 AM 45.3 °F 42.1 °F 88% 30.38 in 10.0 mi North - - N/A   Clear
12:35 AM 46.9 °F 44.6 °F 92% 30.38 in 10.0 mi North - - N/A   Clear
1:15 AM 46.2 °F 44.2 °F 93% 30.38 in 10.0 mi North - - N/A   Clear
1:35 AM 45.7 °F 44.1 °F 94% 30.37 in 10.0 mi North - - N/A   Clear
1:55 AM 45.9 °F 44.1 °F 93% 30.37 in 10.0 mi North - - N/A   Clear
2:15 AM 42.3 °F 40.6 °F 94% 30.37 in 10.0 mi North - - N/A   Clear
2:35 AM 43.5 °F 42.8 °F 97% 30.36 in 7.0 mi North - - N/A   Clear
2:55 AM 42.8 °F 42.1 °F 97% 30.36 in 7.0 mi North - - N/A   Clear
3:15 AM 43.0 °F 42.1 °F 97% 30.35 in 10.0 mi North - - N/A   Clear
3:35 AM 42.4 °F 41.4 °F 96% 30.35 in 10.0 mi North - - N/A   Clear
3:55 AM 40.3 °F 39.6 °F 97% 30.35 in 2.5 mi North - - N/A   Clear
4:15 AM 40.5 °F 39.9 °F 98% 30.34 in 5.0 mi North - - N/A   Clear
4:35 AM 42.1 °F 41.7 °F 99% 30.34 in 7.0 mi North - - N/A   Clear
4:55 AM 42.3 °F 41.7 °F 98% 30.34 in 7.0 mi North - - N/A   Clear
5:15 AM 42.6 °F 42.1 °F 98% 30.34 in 10.0 mi North - - N/A   Clear
5:35 AM 42.6 °F 42.3 °F 99% 30.35 in 7.0 mi North - - N/A   Clear
5:55 AM 42.4 °F 41.9 °F 98% 30.35 in 7.0 mi North - - N/A   Clear
6:15 AM 43.7 °F 43.3 °F 99% 30.36 in 7.0 mi North - - N/A   Clear
6:35 AM 42.1 °F 41.7 °F 99% 30.36 in 5.0 mi North - - N/A   Clear
6:55 AM 41.9 °F 41.5 °F 99% 30.37 in 7.0 mi North - - N/A   Clear
7:15 AM 42.3 °F 41.9 °F 99% 30.38 in 1.0 mi North - - N/A   Mist
7:35 AM 42.6 °F 42.3 °F 99% 30.39 in 4.0 mi North - - N/A   Clear
7:55 AM 42.1 °F 41.9 °F 99% 30.39 in 0.5 mi North - - N/A Fog Fog
8:15 AM 42.6 °F 42.4 °F 99% 30.39 in 5.0 mi North - - N/A   Clear
8:55 AM 51.3 °F 51.1 °F 99% 30.40 in 7.0 mi North - - N/A   Clear
9:15 AM 56.5 °F 52.7 °F 87% 30.41 in 10.0 mi North - - N/A   Clear
9:35 AM 59.5 °F 51.8 °F 76% 30.41 in 10.0 mi North - - N/A   Clear
9:55 AM 63.0 °F 50.0 °F 63% 30.42 in 10.0 mi North - - N/A   Clear
10:15 AM 64.8 °F 48.4 °F 55% 30.42 in 10.0 mi North - - N/A   Clear
10:35 AM 66.4 °F 45.5 °F 47% 30.42 in 10.0 mi North - - N/A   Clear
10:55 AM 68.0 °F 42.4 °F 39% 30.42 in 10.0 mi North - - N/A   Clear
11:15 AM 68.5 °F 41.4 °F 37% 30.42 in 10.0 mi North - - N/A   Clear
11:35 AM 70.0 °F 41.2 °F 35% 30.42 in 10.0 mi North - - N/A   Clear
11:55 AM 70.3 °F 39.6 °F 33% 30.42 in 10.0 mi North - - N/A   Clear
12:15 PM 71.1 °F 39.0 °F 31% 30.42 in 10.0 mi North - - N/A   Clear
12:35 PM 71.8 °F 37.4 °F 29% 30.42 in 10.0 mi North - - N/A   Clear
12:55 PM 72.0 °F 37.4 °F 28% 30.41 in 10.0 mi North - - N/A   Clear
1:15 PM 72.5 °F 38.3 °F 29% 30.40 in 10.0 mi North - - N/A   Clear
1:35 PM 72.7 °F 39.2 °F 30% 30.39 in 10.0 mi North - - N/A   Clear
1:55 PM 73.0 °F 39.4 °F 30% 30.38 in 10.0 mi North - - N/A   Clear
2:15 PM 72.7 °F 39.6 °F 30% 30.37 in 10.0 mi North - - N/A   Clear
2:35 PM 73.4 °F 40.5 °F 30% 30.36 in 10.0 mi North - - N/A   Clear
2:55 PM 73.9 °F 40.6 °F 30% 30.35 in 10.0 mi North - - N/A   Clear
3:15 PM 73.0 °F 40.5 °F 31% 30.34 in 10.0 mi North - - N/A   Clear
3:35 PM 72.5 °F 41.0 °F 32% 30.33 in 10.0 mi North - - N/A   Clear
3:55 PM 73.4 °F 41.5 °F 32% 30.32 in 10.0 mi North - - N/A   Clear
4:15 PM 73.2 °F 42.3 °F 33% 30.32 in 10.0 mi North - - N/A   Clear
4:35 PM 72.9 °F 43.0 °F 34% 30.32 in 10.0 mi North - - N/A   Clear
4:55 PM 72.0 °F 43.2 °F 35% 30.31 in 10.0 mi North - - N/A   Clear
5:15 PM 72.0 °F 43.0 °F 35% 30.31 in 10.0 mi North - - N/A   Clear
5:35 PM 71.4 °F 43.7 °F 37% 30.31 in 10.0 mi North - - N/A   Clear
5:55 PM 70.2 °F 45.5 °F 41% 30.31 in 10.0 mi North - - N/A   Clear
6:15 PM 68.7 °F 46.6 °F 45% 30.30 in 10.0 mi North - - N/A   Clear
6:35 PM 67.6 °F 46.8 °F 47% 30.30 in 10.0 mi North - - N/A   Clear
6:55 PM 65.7 °F 47.3 °F 51% 30.30 in 10.0 mi North - - N/A   Clear
7:15 PM 64.0 °F 47.5 °F 55% 30.30 in 10.0 mi North - - N/A   Clear
7:35 PM 62.4 °F 47.3 °F 58% 30.30 in 10.0 mi North - - N/A   Clear
7:55 PM 60.6 °F 47.3 °F 61% 30.30 in 10.0 mi North - - N/A   Clear
8:15 PM 59.4 °F 46.9 °F 63% 30.31 in 10.0 mi North - - N/A   Clear
8:55 PM 56.7 °F 46.4 °F 69% 30.32 in 10.0 mi North - - N/A   Clear
9:15 PM 55.4 °F 46.4 °F 72% 30.32 in 10.0 mi North - - N/A   Clear
9:35 PM 54.0 °F 46.0 °F 75% 30.32 in 10.0 mi North - - N/A   Clear
9:55 PM 53.1 °F 45.9 °F 77% 30.32 in 10.0 mi North - - N/A   Clear
10:15 PM 52.3 °F 45.9 °F 79% 30.32 in 10.0 mi North - - N/A   Clear
10:35 PM 51.8 °F 45.7 °F 80% 30.32 in 10.0 mi North - - N/A   Clear
10:55 PM 50.2 °F 45.3 °F 83% 30.32 in 10.0 mi North - - N/A   Clear
11:15 PM 50.9 °F 46.0 °F 83% 30.31 in 10.0 mi North - - N/A   Clear
11:35 PM 50.0 °F 45.9 °F 86% 30.30 in 10.0 mi North - - N/A   Clear
11:55 PM 51.4 °F 47.5 °F 86% 30.30 in 10.0 mi North - - N/A   Clear